P/2016 J1 ( PanSTARRS )

Japanese version
Home page
Updated on March 25, 2017

---------------------------------------------------------------------

* Profile

Discovery Date May 5, 2016
Magnitude 21.4 mag
Discoverer Pan-STARRS 1 telescope (Haleakala)

* Pictures

* Orbital Elements

P/2016 J1-A (PANSTARRS)
Epoch 2016 June 21.0 TT = JDT 2457560.5
T 2016 June 24.12933 TT                                 MPCW
q   2.4480390            (2000.0)            P               Q
n   0.17446350     Peri.   46.55993     -0.40774206     +0.90921798
a   3.1719987      Node   199.85768     -0.89285143     -0.41629018
e   0.2282346      Incl.   14.33063     -0.19121384     +0.00501467
P   5.65
From 23 observations 2016 May 15-Aug. 4, mean residual 0".0.

P/2016 J1-B (PANSTARRS)
Epoch 2016 June 21.0 TT = JDT 2457560.5
T 2016 June 23.79780 TT                                 MPCW
q   2.4481810            (2000.0)            P               Q
n   0.17448792     Peri.   46.48020     -0.40895778     +0.90866935
a   3.1717027      Node   199.86098     -0.89229785     -0.41748892
e   0.2281177      Incl.   14.33291     -0.19120167     +0.00479632
P   5.65
From 27 observations 2016 May 15-Aug. 4, mean residual 0".1.

* Magnitudes Graph

        Component A
        m1 = 16.5 + 5 log d + 10.0 log r

        Component B
        m1 = 17.0 + 5 log d + 10.0 log r

---------------------------------------------------------------------

The orbital elements are published on M.P.E.C. 2017-A77.
The magnitudes graphs are made with Comet for Windows.

---------------------------------------------------------------------

Copyright(C) Seiichi Yoshida (comet@aerith.net). All rights reserved.